Change the Weather History Date:

Monday, November 12, 2012

  Actual Average Record
Temperature  
Mean Temperature 44 °F -  
Max Temperature 50 °F 46 °F 57 °F (2014)
Min Temperature 37 °F 38 °F 32 °F (2004)
Degree Days  
Heating Degree Days 22    
Moisture  
Dew Point 38 °F    
Average Humidity 79    
Maximum Humidity 93    
Minimum Humidity 66    
Precipitation  
Precipitation 0.00 in - - ()
Sea Level Pressure  
Sea Level Pressure 30.26 in    
Wind  
Wind Speed 8 mph ()    
Max Wind Speed 13 mph    
Max Gust Speed -    
Visibility 6.2 miles    
Events      
Averages and records for this station are not official NWS values.
T = Trace of Precipitation, MM = Missing Value Source: Averaged Metar Reports

Daily Weather History Graph

Daily Weather History Graph

Search for Another Location

Airport or City:

Trip Planner

Search our weather history database for the weather conditions in past years. The results will help you decide how hot, cold, wet, or windy it might be!

Date:

Astronomy

Nov. 12, 2012 Rise Set
Actual Time 7:42 AM CET 4:43 PM CET
Civil Twilight 7:06 AM CET 5:20 PM CET
Nautical Twilight 6:25 AM CET 6:00 PM CET
Astronomical Twilight 5:46 AM CET 6:40 PM CET
Moon 5:40 AM CET (11/12) 3:42 PM CET (11/12)
Length of Visible Light 10h 14m
Length of Day
9h 00m
Waning Crescent, 3% of the Moon is Illuminated
Nov 12
Waning Crescent
Nov 13
New
Nov 20
First Quarter
Nov 28
Full
Dec 6
Last Quarter

Hourly Weather History & Observations

Time (CET) Temp. Windchill Dew Point Humidity Pressure Visibility Wind Dir Wind Speed Gust Speed Precip Events Conditions
5:20 AM 44.6 °F 39.2 °F 39.2 °F 81% 30.15 in 6.2 mi SW 10.4 mph - N/A   Mostly Cloudy
5:50 AM 44.6 °F 40.7 °F 39.2 °F 81% 30.18 in 6.2 mi WSW 6.9 mph - N/A   Mostly Cloudy
6:20 AM 44.6 °F 39.7 °F 39.2 °F 81% 30.18 in 6.2 mi WSW 9.2 mph - N/A   Mostly Cloudy
6:50 AM 42.8 °F 38.6 °F 37.4 °F 81% 30.18 in 6.2 mi WSW 6.9 mph - N/A   Mostly Cloudy
7:20 AM 42.8 °F 38.6 °F 37.4 °F 81% 30.21 in 6.2 mi SW 6.9 mph - N/A   Mostly Cloudy
7:50 AM 42.8 °F 39.3 °F 39.2 °F 87% 30.21 in 6.2 mi SSW 5.8 mph - N/A   Mostly Cloudy
8:20 AM 44.6 °F 39.7 °F 39.2 °F 81% 30.21 in 6.2 mi SSW 9.2 mph - N/A   Mostly Cloudy
8:50 AM 44.6 °F 39.7 °F 39.2 °F 81% 30.21 in 6.2 mi SSW 9.2 mph - N/A   Mostly Cloudy
9:20 AM 44.6 °F 39.2 °F 39.2 °F 81% 30.21 in 6.2 mi SW 10.4 mph - N/A   Mostly Cloudy
9:50 AM 44.6 °F 39.7 °F 37.4 °F 76% 30.21 in - SW 9.2 mph - N/A   Clear
10:20 AM 46.4 °F 43.5 °F 39.2 °F 76% 30.24 in - SW 5.8 mph - N/A   Clear
10:50 AM 44.6 °F 38.4 °F 39.2 °F 81% 30.24 in 6.2 mi SW 12.7 mph - N/A   Scattered Clouds
11:20 AM 48.2 °F - 39.2 °F 71% 30.24 in 6.2 mi WSW 9.2 mph - N/A   Scattered Clouds
11:50 AM 46.4 °F 41.1 °F 39.2 °F 76% 30.24 in 6.2 mi SSW 11.5 mph - N/A   Scattered Clouds
12:20 PM 46.4 °F 41.1 °F 37.4 °F 71% 30.24 in 6.2 mi SW 11.5 mph - N/A   Partly Cloudy
12:50 PM 48.2 °F - 39.2 °F 71% 30.24 in 6.2 mi SW 9.2 mph - N/A   Scattered Clouds
1:20 PM 48.2 °F - 39.2 °F 71% 30.27 in 6.2 mi SSW 11.5 mph - N/A   Scattered Clouds
1:50 PM 46.4 °F 41.1 °F 37.4 °F 71% 30.27 in 6.2 mi SW 11.5 mph - N/A   Partly Cloudy
2:20 PM 50.0 °F - 39.2 °F 66% 30.27 in 6.2 mi SW 10.4 mph - N/A   Scattered Clouds
2:50 PM 48.2 °F - 39.2 °F 71% 30.27 in 6.2 mi West 6.9 mph - N/A   Partly Cloudy
3:20 PM 48.2 °F - 39.2 °F 71% 30.27 in 6.2 mi WSW 6.9 mph - N/A   Partly Cloudy
3:50 PM 46.4 °F 42.4 °F 37.4 °F 71% 30.27 in 6.2 mi WSW 8.1 mph - N/A   Partly Cloudy
4:20 PM 46.4 °F 41.9 °F 37.4 °F 71% 30.27 in - WSW 9.2 mph - N/A   Clear
4:50 PM 42.8 °F 40.1 °F 35.6 °F 76% 30.30 in - SSW 4.6 mph - N/A   Clear
5:20 PM 41.0 °F 37.1 °F 35.6 °F 81% 30.30 in - SSW 5.8 mph - N/A   Clear
5:50 PM 41.0 °F 36.4 °F 35.6 °F 81% 30.30 in - SSW 6.9 mph - N/A   Clear
6:20 PM 39.2 °F 34.2 °F 35.6 °F 87% 30.30 in - South 6.9 mph - N/A   Clear
6:50 PM 39.2 °F 35.0 °F 35.6 °F 87% 30.30 in - South 5.8 mph - N/A   Clear
7:20 PM 39.2 °F 34.2 °F 35.6 °F 87% 30.33 in - SSW 6.9 mph - N/A   Clear
7:50 PM 39.2 °F 35.0 °F 35.6 °F 87% 30.33 in - SSW 5.8 mph - N/A   Clear
8:20 PM 37.4 °F 32.1 °F 35.6 °F 93% 30.33 in - South 6.9 mph - N/A   Clear
8:50 PM 37.4 °F 32.1 °F 35.6 °F 93% 30.33 in - South 6.9 mph - N/A   Clear
9:20 PM 39.2 °F 33.6 °F 35.6 °F 87% 30.33 in - South 8.1 mph - N/A   Clear
9:50 PM 37.4 °F 31.4 °F 35.6 °F 93% 30.33 in - South 8.1 mph - N/A   Clear